| time (UTC) | temp F | wind direction | speed MPH | gust MPH | rain 1hr in | rain 24hr in | rain mn in | humidity % | barometer mb |
| 20260507180211 | 68 | 231 | 9.0 | 13.0 | 0.00 | 0.00 | 0.00 | 38 | 1016.7 |
| 20260507175707 | 67 | 236 | 4.0 | 7.0 | 0.00 | 0.00 | 0.00 | 40 | 1016.8 |
| 20260507175204 | 67 | 208 | 9.0 | 10.0 | 0.00 | 0.00 | 0.00 | 40 | 1016.9 |
| 20260507174701 | 66 | 222 | 6.0 | 8.0 | 0.00 | 0.00 | 0.00 | 44 | 1017.0 |
| 20260507174159 | 67 | 234 | 6.0 | 7.0 | 0.00 | 0.00 | 0.00 | 41 | 1017.1 |
| 20260507173656 | 67 | 229 | 4.0 | 7.0 | 0.00 | 0.00 | 0.00 | 44 | 1017.2 |
| 20260507173153 | 68 | 252 | 4.0 | 7.0 | 0.00 | 0.00 | 0.00 | 42 | 1017.4 |
| 20260507172650 | 68 | 226 | 3.0 | 4.0 | 0.00 | 0.00 | 0.00 | 42 | 1017.6 |
| 20260507172147 | 67 | 234 | 6.0 | 10.0 | 0.00 | 0.00 | 0.00 | 42 | 1017.4 |
| 20260507171647 | 65 | 280 | 6.0 | 7.0 | 0.00 | 0.00 | 0.00 | 47 | 1017.6 |
| 20260507171144 | 65 | 231 | 9.0 | 10.0 | 0.00 | 0.00 | 0.00 | 45 | 1017.6 |
| 20260507170641 | 65 | 212 | 12.0 | 17.0 | 0.00 | 0.00 | 0.00 | 43 | 1017.7 |
| 20260507170138 | 65 | 222 | 7.0 | 9.0 | 0.00 | 0.00 | 0.00 | 46 | 1018.0 |
| 20260507165634 | 66 | 262 | 9.0 | 11.0 | 0.00 | 0.00 | 0.00 | 44 | 1018.2 |
| 20260507165130 | 64 | 251 | 5.0 | 7.0 | 0.00 | 0.00 | 0.00 | 50 | 1018.1 |
| 20260507164626 | 65 | 227 | 8.0 | 9.0 | 0.00 | 0.00 | 0.00 | 45 | 1018.2 |
| 20260507164123 | 64 | 231 | 9.0 | 11.0 | 0.00 | 0.00 | 0.00 | 45 | 1018.0 |
| 20260507163620 | 63 | 219 | 9.0 | 13.0 | 0.00 | 0.00 | 0.00 | 50 | 1018.0 |
| 20260507163119 | 64 | 214 | 4.0 | 4.0 | 0.00 | 0.00 | 0.00 | 47 | 1018.1 |
| 20260507162614 | 62 | 249 | 7.0 | 9.0 | 0.00 | 0.00 | 0.00 | 50 | 1018.4 |
| 20260507162111 | 62 | 296 | 6.0 | 9.0 | 0.00 | 0.00 | 0.00 | 50 | 1018.3 |
| 20260507161607 | 62 | 271 | 8.0 | 9.0 | 0.00 | 0.00 | 0.00 | 51 | 1018.2 |
| 20260507161103 | 62 | 236 | 12.0 | 18.0 | 0.00 | 0.00 | 0.00 | 47 | 1018.5 |
| 20260507160600 | 62 | 236 | 10.0 | 14.0 | 0.00 | 0.00 | 0.00 | 48 | 1018.6 |
| 20260507160056 | 62 | 82 | 9.0 | 14.0 | 0.00 | 0.00 | 0.00 | 49 | 1018.4 |
| 20260507155551 | 60 | 206 | 2.0 | 4.0 | 0.00 | 0.00 | 0.00 | 55 | 1018.4 |
| 20260507155049 | 60 | 218 | 11.0 | 16.0 | 0.00 | 0.00 | 0.00 | 55 | 1018.7 |
| 20260507154546 | 60 | 232 | 6.0 | 8.0 | 0.00 | 0.00 | 0.00 | 53 | 1018.6 |
| 20260507154043 | 60 | 229 | 7.0 | 9.0 | 0.00 | 0.00 | 0.00 | 55 | 1018.9 |
| 20260507153539 | 59 | 234 | 6.0 | 9.0 | 0.00 | 0.00 | 0.00 | 57 | 1018.6 |
| 20260507153036 | 59 | 216 | 7.0 | 10.0 | 0.00 | 0.00 | 0.00 | 54 | 1018.7 |
| 20260507152532 | 58 | 205 | 7.0 | 8.0 | 0.00 | 0.00 | 0.00 | 57 | 1018.8 |
| 20260507152028 | 59 | 228 | 10.0 | 11.0 | 0.00 | 0.00 | 0.00 | 55 | 1019.1 |
| 20260507151524 | 59 | 199 | 5.0 | 6.0 | 0.00 | 0.00 | 0.00 | 59 | 1019.1 |
| 20260507151021 | 58 | 219 | 4.0 | 7.0 | 0.00 | 0.00 | 0.00 | 60 | 1019.1 |
| 20260507150518 | 59 | 255 | 4.0 | 6.0 | 0.00 | 0.00 | 0.00 | 60 | 1019.3 |
| 20260507150015 | 58 | 231 | 3.0 | 4.0 | 0.00 | 0.00 | 0.00 | 60 | 1019.1 |
| 20260507145510 | 57 | 247 | 4.0 | 6.0 | 0.00 | 0.00 | 0.00 | 62 | 1019.5 |
| 20260507145008 | 57 | 219 | 3.0 | 6.0 | 0.00 | 0.00 | 0.00 | 59 | 1019.3 |
| 20260507144504 | 57 | 252 | 11.0 | 11.0 | 0.00 | 0.00 | 0.00 | 58 | 1019.3 |
| 20260507144002 | 57 | 215 | 6.0 | 11.0 | 0.00 | 0.00 | 0.00 | 64 | 1019.5 |
| 20260507143459 | 56 | 178 | 4.0 | 7.0 | 0.00 | 0.00 | 0.00 | 62 | 1019.6 |
| 20260507142955 | 56 | 225 | 6.0 | 9.0 | 0.00 | 0.00 | 0.00 | 64 | 1019.5 |
| 20260507142451 | 56 | 42 | 2.0 | 3.0 | 0.00 | 0.00 | 0.00 | 67 | 1019.5 |
| 20260507141948 | 55 | 213 | 2.0 | 3.0 | 0.00 | 0.00 | 0.00 | 69 | 1019.5 |
| 20260507141444 | 55 | 212 | 3.0 | 3.0 | 0.00 | 0.00 | 0.00 | 69 | 1019.5 |
| 20260507140941 | 55 | 238 | 3.0 | 4.0 | 0.00 | 0.00 | 0.00 | 70 | 1019.5 |
| 20260507140438 | 54 | 220 | 3.0 | 3.0 | 0.00 | 0.00 | 0.00 | 71 | 1019.6 |
| 20260507135936 | 54 | 226 | 5.0 | 8.0 | 0.00 | 0.00 | 0.00 | 72 | 1019.7 |
| 20260507135432 | 53 | 223 | 2.0 | 2.0 | 0.00 | 0.00 | 0.00 | 75 | 1019.8 |
| 20260507134930 | 53 | 206 | 6.0 | 8.0 | 0.00 | 0.00 | 0.00 | 74 | 1019.6 |
| 20260507134426 | 52 | 231 | 3.0 | 4.0 | 0.00 | 0.00 | 0.00 | 77 | 1019.7 |
| 20260507133922 | 51 | 218 | 3.0 | 3.0 | 0.00 | 0.00 | 0.00 | 77 | 1019.7 |
| 20260507133419 | 51 | 194 | 2.0 | 2.0 | 0.00 | 0.00 | 0.00 | 78 | 1019.8 |
| 20260507132917 | 51 | 218 | 4.0 | 6.0 | 0.00 | 0.00 | 0.00 | 79 | 1019.8 |
| 20260507132413 | 50 | 229 | 3.0 | 3.0 | 0.00 | 0.00 | 0.00 | 80 | 1019.8 |
| 20260507131909 | 50 | 218 | 2.0 | 2.0 | 0.00 | 0.00 | 0.00 | 81 | 1019.8 |
| 20260507131407 | 49 | 208 | 3.0 | 3.0 | 0.00 | 0.00 | 0.00 | 81 | 1020.0 |
| 20260507130904 | 49 | 219 | 4.0 | 6.0 | 0.00 | 0.00 | 0.00 | 82 | 1019.9 |
| 20260507130400 | 48 | 218 | 2.0 | 2.0 | 0.00 | 0.00 | 0.00 | 85 | 1020.0 |
| 20260507125859 | 48 | 194 | 1.0 | 1.0 | 0.00 | 0.00 | 0.00 | 86 | 1020.0 |
| 20260507125356 | 47 | 215 | 3.0 | 3.0 | 0.00 | 0.00 | 0.00 | 86 | 1019.9 |
| 20260507124854 | 46 | 216 | 1.0 | 1.0 | 0.00 | 0.00 | 0.00 | 89 | 1019.7 |
| 20260507124349 | 45 | 195 | 0.0 | 1.0 | 0.00 | 0.00 | 0.00 | 91 | 1019.7 |
| 20260507123849 | 45 | 207 | 0.0 | 0.0 | 0.00 | 0.00 | 0.00 | 93 | 1019.7 |
| 20260507123345 | 44 | 207 | 0.0 | 0.0 | 0.00 | 0.00 | 0.00 | 94 | 1019.8 |
| 20260507122841 | 44 | 207 | 0.0 | 0.0 | 0.00 | 0.00 | 0.00 | 94 | 1020.0 |
| 20260507122337 | 43 | 207 | 0.0 | 0.0 | 0.00 | 0.00 | 0.00 | 94 | 1020.0 |
| 20260507121834 | 43 | 207 | 0.0 | 0.0 | 0.00 | 0.00 | 0.00 | 94 | 1020.0 |
| 20260507121329 | 42 | 207 | 0.0 | 0.0 | 0.00 | 0.00 | 0.00 | 94 | 1019.8 |
| 20260507120826 | 42 | 207 | 0.0 | 0.0 | 0.00 | 0.00 | 0.00 | 93 | 1019.7 |
| 20260507120322 | 42 | 207 | 0.0 | 0.0 | 0.00 | 0.00 | 0.00 | 93 | 1019.8 |
| 20260507115819 | 42 | 207 | 0.0 | 0.0 | 0.00 | 0.00 | 0.00 | 92 | 1019.5 |
| 20260507115314 | 42 | 207 | 0.0 | 0.0 | 0.00 | 0.00 | 0.00 | 92 | 1019.6 |
| 20260507114810 | 43 | 207 | 0.0 | 0.0 | 0.00 | 0.00 | 0.00 | 92 | 1019.5 |
| 20260507114308 | 43 | 207 | 0.0 | 0.0 | 0.00 | 0.00 | 0.00 | 92 | 1019.5 |
| 20260507113805 | 43 | 207 | 0.0 | 0.0 | 0.00 | 0.00 | 0.00 | 92 | 1019.4 |
| 20260507113302 | 43 | 207 | 0.0 | 0.0 | 0.00 | 0.00 | 0.00 | 92 | 1019.4 |
| 20260507112800 | 43 | 207 | 0.0 | 0.0 | 0.00 | 0.00 | 0.00 | 92 | 1019.6 |
| 20260507112256 | 43 | 207 | 0.0 | 0.0 | 0.00 | 0.00 | 0.00 | 92 | 1019.4 |
| 20260507111754 | 43 | 207 | 0.0 | 0.0 | 0.00 | 0.00 | 0.00 | 92 | 1019.3 |
| 20260507111250 | 43 | 207 | 0.0 | 0.0 | 0.00 | 0.00 | 0.00 | 92 | 1019.3 |
| 20260507110746 | 44 | 207 | 0.0 | 0.0 | 0.00 | 0.00 | 0.00 | 91 | 1019.6 |
| 20260507110243 | 44 | 207 | 0.0 | 0.0 | 0.00 | 0.00 | 0.00 | 92 | 1019.4 |
| 20260507105740 | 44 | 207 | 0.0 | 0.0 | 0.00 | 0.00 | 0.00 | 92 | 1019.3 |
| 20260507105236 | 44 | 207 | 0.0 | 0.0 | 0.00 | 0.00 | 0.00 | 92 | 1019.4 |
| 20260507104733 | 44 | 207 | 0.0 | 0.0 | 0.00 | 0.00 | 0.00 | 92 | 1019.5 |
| 20260507104230 | 44 | 207 | 0.0 | 0.0 | 0.00 | 0.00 | 0.00 | 92 | 1019.4 |
| 20260507103726 | 44 | 207 | 0.0 | 0.0 | 0.00 | 0.00 | 0.00 | 92 | 1019.5 |
| 20260507103222 | 44 | 207 | 0.0 | 0.0 | 0.00 | 0.00 | 0.00 | 92 | 1019.6 |
| 20260507102719 | 44 | 207 | 0.0 | 0.0 | 0.00 | 0.00 | 0.00 | 92 | 1019.6 |
| 20260507102215 | 44 | 207 | 0.0 | 0.0 | 0.00 | 0.00 | 0.00 | 92 | 1019.4 |
| 20260507101711 | 44 | 207 | 0.0 | 0.0 | 0.00 | 0.00 | 0.00 | 92 | 1019.4 |
| 20260507101207 | 44 | 207 | 0.0 | 0.0 | 0.00 | 0.00 | 0.00 | 92 | 1019.7 |
| 20260507100704 | 44 | 207 | 0.0 | 0.0 | 0.00 | 0.00 | 0.00 | 91 | 1019.5 |
| 20260507100203 | 44 | 207 | 0.0 | 0.0 | 0.00 | 0.00 | 0.00 | 91 | 1019.7 |
| 20260507095701 | 44 | 207 | 0.0 | 0.0 | 0.00 | 0.00 | 0.00 | 91 | 1019.9 |
| 20260507095157 | 44 | 207 | 0.0 | 0.0 | 0.00 | 0.00 | 0.00 | 90 | 1019.6 |
| 20260507094653 | 45 | 207 | 0.0 | 0.0 | 0.00 | 0.00 | 0.00 | 89 | 1019.7 |
| 20260507094150 | 45 | 207 | 0.0 | 0.0 | 0.00 | 0.00 | 0.00 | 89 | 1019.8 |
| 20260507093647 | 45 | 207 | 0.0 | 0.0 | 0.00 | 0.00 | 0.00 | 88 | 1019.7 |
| 20260507093146 | 46 | 207 | 0.0 | 0.0 | 0.00 | 0.00 | 0.00 | 88 | 1019.9 |
| 20260507092643 | 46 | 207 | 0.0 | 0.0 | 0.00 | 0.00 | 0.00 | 87 | 1019.8 |
| 20260507092139 | 46 | 207 | 0.0 | 0.0 | 0.00 | 0.00 | 0.00 | 86 | 1019.7 |
| 20260507091635 | 46 | 207 | 0.0 | 0.0 | 0.00 | 0.00 | 0.00 | 85 | 1019.8 |
| 20260507091132 | 47 | 207 | 0.0 | 0.0 | 0.00 | 0.00 | 0.00 | 84 | 1019.7 |
| 20260507090627 | 47 | 207 | 0.0 | 0.0 | 0.00 | 0.00 | 0.00 | 83 | 1019.9 |
| 20260507090125 | 48 | 207 | 0.0 | 0.0 | 0.00 | 0.00 | 0.00 | 82 | 1019.7 |
| 20260507085622 | 48 | 207 | 0.0 | 0.0 | 0.00 | 0.00 | 0.00 | 82 | 1019.8 |
| 20260507085118 | 48 | 207 | 0.0 | 0.0 | 0.00 | 0.00 | 0.00 | 83 | 1019.6 |
| 20260507084615 | 49 | 207 | 0.0 | 0.0 | 0.00 | 0.00 | 0.00 | 84 | 1019.9 |
| 20260507084112 | 49 | 207 | 0.0 | 0.0 | 0.00 | 0.00 | 0.00 | 84 | 1019.9 |
| 20260507083609 | 49 | 207 | 0.0 | 0.0 | 0.00 | 0.00 | 0.00 | 83 | 1020.0 |
| 20260507083106 | 49 | 207 | 0.0 | 0.0 | 0.00 | 0.00 | 0.00 | 81 | 1020.1 |
| 20260507082601 | 49 | 207 | 0.0 | 0.0 | 0.00 | 0.00 | 0.00 | 81 | 1020.0 |
| 20260507082058 | 49 | 207 | 0.0 | 0.0 | 0.00 | 0.00 | 0.00 | 81 | 1020.1 |
| 20260507081554 | 49 | 207 | 0.0 | 0.0 | 0.00 | 0.00 | 0.00 | 80 | 1020.1 |
| 20260507081052 | 49 | 207 | 0.0 | 0.0 | 0.00 | 0.00 | 0.00 | 80 | 1020.2 |
| 20260507080547 | 49 | 207 | 0.0 | 0.0 | 0.00 | 0.00 | 0.00 | 81 | 1020.0 |
| 20260507080044 | 49 | 207 | 0.0 | 0.0 | 0.00 | 0.00 | 0.00 | 80 | 1019.8 |
| 20260507075539 | 50 | 207 | 0.0 | 0.0 | 0.00 | 0.00 | 0.00 | 80 | 1020.1 |
| 20260507075036 | 50 | 207 | 0.0 | 0.0 | 0.00 | 0.00 | 0.00 | 80 | 1020.2 |
| 20260507074533 | 50 | 207 | 0.0 | 0.0 | 0.00 | 0.00 | 0.00 | 81 | 1020.0 |
| 20260507074031 | 50 | 207 | 0.0 | 0.0 | 0.00 | 0.00 | 0.00 | 81 | 1020.1 |
| 20260507073527 | 50 | 207 | 0.0 | 0.0 | 0.00 | 0.00 | 0.00 | 80 | 1020.1 |
| 20260507073024 | 50 | 207 | 0.0 | 0.0 | 0.00 | 0.00 | 0.00 | 79 | 1020.1 |
| 20260507072521 | 50 | 207 | 0.0 | 0.0 | 0.00 | 0.00 | 0.00 | 80 | 1020.1 |
| 20260507072018 | 50 | 207 | 0.0 | 0.0 | 0.00 | 0.00 | 0.00 | 79 | 1020.2 |
| 20260507071516 | 50 | 207 | 0.0 | 0.0 | 0.00 | 0.00 | 0.00 | 79 | 1020.4 |
| 20260507071012 | 50 | 207 | 0.0 | 0.0 | 0.00 | 0.00 | 0.00 | 79 | 1020.4 |
| 20260507070509 | 50 | 207 | 0.0 | 0.0 | 0.00 | 0.00 | 0.00 | 80 | 1020.4 |
| 20260507070010 | 50 | 207 | 0.0 | 0.0 | 0.00 | 0.00 | 0.00 | 79 | 1020.4 |
| 20260507065502 | 50 | 207 | 0.0 | 0.0 | 0.00 | 0.00 | 0.00 | 78 | 1020.5 |
| 20260507064959 | 50 | 207 | 0.0 | 0.0 | 0.00 | 0.00 | 0.00 | 77 | 1020.5 |
| 20260507064458 | 50 | 207 | 0.0 | 0.0 | 0.00 | 0.00 | 0.00 | 77 | 1020.4 |
| 20260507063955 | 50 | 207 | 0.0 | 0.0 | 0.00 | 0.00 | 0.00 | 77 | 1020.3 |
| 20260507063452 | 50 | 207 | 0.0 | 0.0 | 0.00 | 0.00 | 0.00 | 77 | 1020.3 |
| 20260507062949 | 50 | 207 | 0.0 | 1.0 | 0.00 | 0.00 | 0.00 | 77 | 1020.4 |
| 20260507062446 | 50 | 194 | 0.0 | 0.0 | 0.00 | 0.00 | 0.00 | 80 | 1020.5 |
| 20260507061944 | 50 | 194 | 0.0 | 0.0 | 0.00 | 0.00 | 0.00 | 78 | 1020.4 |
| 20260507061442 | 50 | 194 | 0.0 | 0.0 | 0.00 | 0.00 | 0.00 | 78 | 1020.3 |
| 20260507060940 | 49 | 210 | 0.0 | 0.0 | 0.00 | 0.00 | 0.00 | 81 | 1020.4 |
| 20260507060436 | 49 | 210 | 0.0 | 0.0 | 0.00 | 0.00 | 0.00 | 84 | 1020.5 |
| 20260507055933 | 49 | 210 | 0.0 | 0.0 | 0.00 | 0.00 | 0.00 | 85 | 1020.6 |
| 20260507055428 | 49 | 210 | 0.0 | 0.0 | 0.00 | 0.00 | 0.00 | 84 | 1020.5 |
| 20260507054925 | 49 | 209 | 0.0 | 0.0 | 0.00 | 0.00 | 0.00 | 85 | 1020.5 |
| 20260507054421 | 49 | 209 | 0.0 | 0.0 | 0.00 | 0.00 | 0.00 | 86 | 1020.6 |
| 20260507053919 | 49 | 209 | 0.0 | 0.0 | 0.00 | 0.00 | 0.00 | 87 | 1020.4 |
| 20260507053416 | 49 | 209 | 0.0 | 0.0 | 0.00 | 0.00 | 0.00 | 88 | 1020.6 |
| 20260507052915 | 49 | 210 | 0.0 | 0.0 | 0.00 | 0.00 | 0.00 | 88 | 1020.5 |
| 20260507052412 | 48 | 209 | 0.0 | 0.0 | 0.00 | 0.00 | 0.00 | 88 | 1020.3 |
| 20260507051909 | 48 | 209 | 0.0 | 0.0 | 0.00 | 0.00 | 0.00 | 87 | 1020.3 |
| 20260507051407 | 48 | 209 | 0.0 | 0.0 | 0.00 | 0.00 | 0.00 | 87 | 1020.6 |
| 20260507050903 | 48 | 209 | 0.0 | 0.0 | 0.00 | 0.00 | 0.00 | 87 | 1020.5 |
| 20260507050359 | 48 | 209 | 0.0 | 0.0 | 0.00 | 0.00 | 0.00 | 87 | 1020.6 |
| 20260507045856 | 48 | 209 | 0.0 | 0.0 | 0.00 | 0.07 | 0.07 | 86 | 1020.6 |
| 20260507045353 | 48 | 210 | 0.0 | 0.0 | 0.00 | 0.07 | 0.07 | 85 | 1020.7 |
| 20260507044850 | 48 | 209 | 0.0 | 0.0 | 0.00 | 0.07 | 0.07 | 85 | 1020.6 |
| 20260507044347 | 49 | 209 | 0.0 | 0.0 | 0.00 | 0.07 | 0.07 | 83 | 1020.4 |
| 20260507043842 | 49 | 209 | 0.0 | 0.0 | 0.00 | 0.07 | 0.07 | 83 | 1020.6 |
| 20260507043339 | 50 | 209 | 0.0 | 0.0 | 0.00 | 0.07 | 0.07 | 82 | 1020.6 |
| 20260507042836 | 50 | 210 | 0.0 | 0.0 | 0.00 | 0.07 | 0.07 | 81 | 1020.5 |
| 20260507042331 | 50 | 209 | 0.0 | 0.0 | 0.00 | 0.07 | 0.07 | 81 | 1020.7 |
| 20260507041829 | 51 | 210 | 0.0 | 0.0 | 0.00 | 0.07 | 0.07 | 79 | 1020.4 |
| 20260507041325 | 51 | 210 | 0.0 | 0.0 | 0.00 | 0.07 | 0.07 | 80 | 1020.3 |
| 20260507040822 | 51 | 210 | 0.0 | 0.0 | 0.00 | 0.07 | 0.07 | 80 | 1020.4 |
| 20260507040318 | 51 | 210 | 0.0 | 0.0 | 0.00 | 0.07 | 0.07 | 79 | 1020.7 |
| 20260507035814 | 52 | 210 | 0.0 | 0.0 | 0.00 | 0.07 | 0.07 | 77 | 1020.5 |
| 20260507035310 | 52 | 210 | 0.0 | 0.0 | 0.00 | 0.07 | 0.07 | 77 | 1020.7 |
| 20260507034808 | 52 | 210 | 1.0 | 1.0 | 0.00 | 0.07 | 0.07 | 73 | 1020.6 |
| 20260507034305 | 52 | 209 | 0.0 | 0.0 | 0.00 | 0.07 | 0.07 | 73 | 1020.5 |
| 20260507033803 | 52 | 209 | 0.0 | 0.0 | 0.00 | 0.07 | 0.07 | 73 | 1020.5 |
| 20260507033300 | 52 | 209 | 0.0 | 0.0 | 0.00 | 0.07 | 0.07 | 73 | 1020.5 |
| 20260507032757 | 52 | 209 | 0.0 | 0.0 | 0.00 | 0.07 | 0.07 | 73 | 1020.4 |
| 20260507032253 | 52 | 210 | 0.0 | 0.0 | 0.00 | 0.07 | 0.07 | 74 | 1020.4 |
| 20260507031749 | 52 | 210 | 0.0 | 0.0 | 0.00 | 0.07 | 0.07 | 71 | 1020.7 |
| 20260507031247 | 52 | 210 | 0.0 | 0.0 | 0.00 | 0.07 | 0.07 | 70 | 1020.5 |
| 20260507030743 | 53 | 210 | 0.0 | 0.0 | 0.00 | 0.07 | 0.07 | 73 | 1020.3 |
| 20260507030241 | 53 | 210 | 0.0 | 0.0 | 0.00 | 0.07 | 0.07 | 71 | 1020.2 |
| 20260507025738 | 53 | 210 | 0.0 | 0.0 | 0.00 | 0.07 | 0.07 | 68 | 1020.4 |
| 20260507025235 | 53 | 210 | 0.0 | 0.0 | 0.00 | 0.07 | 0.07 | 69 | 1020.6 |
| 20260507024733 | 53 | 210 | 0.0 | 0.0 | 0.00 | 0.07 | 0.07 | 69 | 1020.3 |
| 20260507024230 | 53 | 210 | 0.0 | 0.0 | 0.00 | 0.07 | 0.07 | 68 | 1020.4 |
| 20260507023725 | 54 | 210 | 0.0 | 0.0 | 0.00 | 0.07 | 0.07 | 69 | 1020.0 |
| 20260507023222 | 53 | 219 | 0.0 | 0.0 | 0.00 | 0.07 | 0.07 | 60 | 1020.3 |
| 20260507022720 | 53 | 219 | 0.0 | 0.0 | 0.00 | 0.07 | 0.07 | 65 | 1020.4 |
| 20260507022216 | 53 | 219 | 0.0 | 0.0 | 0.00 | 0.07 | 0.07 | 65 | 1020.3 |
| 20260507021712 | 53 | 230 | 0.0 | 1.0 | 0.00 | 0.07 | 0.07 | 67 | 1020.0 |
| 20260507021207 | 53 | 201 | 1.0 | 1.0 | 0.00 | 0.07 | 0.07 | 66 | 1020.2 |
| 20260507020706 | 53 | 183 | 0.0 | 0.0 | 0.00 | 0.07 | 0.07 | 62 | 1020.0 |
| 20260507020202 | 54 | 183 | 0.0 | 0.0 | 0.00 | 0.07 | 0.07 | 60 | 1019.7 |
| 20260507015700 | 54 | 183 | 0.0 | 0.0 | 0.00 | 0.07 | 0.07 | 60 | 1019.6 |
| 20260507015157 | 54 | 183 | 0.0 | 0.0 | 0.00 | 0.07 | 0.07 | 58 | 1019.7 |
| 20260507014653 | 55 | 183 | 0.0 | 0.0 | 0.00 | 0.07 | 0.07 | 56 | 1019.6 |
| 20260507014150 | 55 | 183 | 0.0 | 0.0 | 0.00 | 0.07 | 0.07 | 55 | 1019.5 |
| 20260507013647 | 55 | 183 | 0.0 | 0.0 | 0.00 | 0.07 | 0.07 | 55 | 1019.4 |
| 20260507013144 | 56 | 183 | 0.0 | 0.0 | 0.00 | 0.07 | 0.07 | 54 | 1019.4 |
| 20260507012642 | 56 | 183 | 0.0 | 0.0 | 0.00 | 0.07 | 0.07 | 52 | 1019.3 |
| 20260507012136 | 57 | 183 | 0.0 | 0.0 | 0.00 | 0.07 | 0.07 | 53 | 1019.1 |
| 20260507011635 | 57 | 183 | 0.0 | 0.0 | 0.00 | 0.07 | 0.07 | 51 | 1019.3 |
| 20260507011131 | 57 | 182 | 0.0 | 0.0 | 0.00 | 0.07 | 0.07 | 50 | 1019.4 |
| 20260507010626 | 57 | 186 | 0.0 | 0.0 | 0.00 | 0.07 | 0.07 | 50 | 1019.1 |
| 20260507010122 | 57 | 181 | 0.0 | 0.0 | 0.00 | 0.07 | 0.07 | 49 | 1019.0 |
| 20260507005620 | 57 | 190 | 0.0 | 0.0 | 0.00 | 0.07 | 0.07 | 49 | 1019.1 |
| 20260507005116 | 57 | 190 | 0.0 | 0.0 | 0.00 | 0.07 | 0.07 | 47 | 1019.1 |
| 20260507004613 | 57 | 186 | 0.0 | 0.0 | 0.00 | 0.07 | 0.07 | 47 | 1019.1 |
| 20260507004110 | 58 | 175 | 0.0 | 0.0 | 0.00 | 0.07 | 0.07 | 46 | 1019.0 |
| 20260507003606 | 58 | 192 | 0.0 | 0.0 | 0.00 | 0.07 | 0.07 | 46 | 1019.1 |
| 20260507003101 | 58 | 169 | 0.0 | 1.0 | 0.00 | 0.07 | 0.07 | 45 | 1019.0 |
| 20260507002558 | 59 | 154 | 1.0 | 1.0 | 0.00 | 0.07 | 0.07 | 44 | 1019.1 |
| 20260507002053 | 59 | 187 | 0.0 | 0.0 | 0.00 | 0.07 | 0.07 | 43 | 1019.1 |
| 20260507001550 | 60 | 166 | 0.0 | 0.0 | 0.00 | 0.07 | 0.07 | 44 | 1019.1 |
| 20260507001048 | 60 | 46 | 2.0 | 2.0 | 0.00 | 0.07 | 0.07 | 43 | 1019.1 |
| 20260507000544 | 60 | 68 | 0.0 | 1.0 | 0.00 | 0.07 | 0.07 | 43 | 1019.1 |
| 20260507000039 | 60 | 149 | 0.0 | 1.0 | 0.00 | 0.07 | 0.07 | 44 | 1018.9 |
| 20260506235537 | 60 | 177 | 0.0 | 0.0 | 0.00 | 0.07 | 0.07 | 45 | 1019.0 |
| 20260506235032 | 60 | 315 | 2.0 | 2.0 | 0.00 | 0.07 | 0.07 | 43 | 1018.7 |
| 20260506234530 | 61 | 213 | 1.0 | 1.0 | 0.00 | 0.07 | 0.07 | 46 | 1018.7 |
| 20260506234027 | 61 | 174 | 1.0 | 2.0 | 0.00 | 0.07 | 0.07 | 43 | 1018.7 |
| 20260506233524 | 61 | 81 | 2.0 | 2.0 | 0.00 | 0.07 | 0.07 | 43 | 1018.8 |
| 20260506233021 | 61 | 192 | 0.0 | 0.0 | 0.00 | 0.07 | 0.07 | 46 | 1018.8 |
| 20260506232517 | 61 | 214 | 0.0 | 0.0 | 0.00 | 0.07 | 0.07 | 44 | 1018.9 |
| 20260506232013 | 61 | 57 | 1.0 | 2.0 | 0.00 | 0.07 | 0.07 | 42 | 1018.8 |
| 20260506231510 | 61 | 39 | 2.0 | 2.0 | 0.00 | 0.07 | 0.07 | 43 | 1018.9 |
| 20260506231008 | 61 | 229 | 3.0 | 3.0 | 0.00 | 0.07 | 0.07 | 42 | 1018.8 |
| 20260506230504 | 61 | 165 | 0.0 | 0.0 | 0.00 | 0.07 | 0.07 | 42 | 1018.9 |
| 20260506230001 | 61 | 66 | 1.0 | 1.0 | 0.00 | 0.07 | 0.07 | 40 | 1019.1 |
| 20260506225458 | 62 | 109 | 0.0 | 0.0 | 0.00 | 0.07 | 0.07 | 39 | 1018.8 |
| 20260506224954 | 62 | 127 | 1.0 | 1.0 | 0.00 | 0.07 | 0.07 | 39 | 1018.9 |
| 20260506224452 | 62 | 258 | 2.0 | 3.0 | 0.00 | 0.07 | 0.07 | 39 | 1018.7 |
| 20260506223948 | 62 | 182 | 0.0 | 0.0 | 0.00 | 0.07 | 0.07 | 40 | 1018.6 |
| 20260506223444 | 62 | 256 | 1.0 | 2.0 | 0.00 | 0.07 | 0.07 | 41 | 1018.4 |
| 20260506222941 | 62 | 202 | 1.0 | 2.0 | 0.00 | 0.07 | 0.07 | 38 | 1018.5 |
| 20260506222438 | 63 | 3 | 1.0 | 1.0 | 0.00 | 0.07 | 0.07 | 37 | 1018.6 |
| 20260506221935 | 63 | 109 | 1.0 | 2.0 | 0.00 | 0.07 | 0.07 | 39 | 1018.5 |
| 20260506221432 | 63 | 288 | 0.0 | 1.0 | 0.00 | 0.07 | 0.07 | 40 | 1018.7 |
| 20260506220930 | 64 | 27 | 4.0 | 4.0 | 0.00 | 0.07 | 0.07 | 36 | 1018.6 |
| 20260506220425 | 65 | 355 | 1.0 | 2.0 | 0.00 | 0.07 | 0.07 | 35 | 1018.7 |
| 20260506215922 | 65 | 337 | 4.0 | 6.0 | 0.00 | 0.07 | 0.07 | 38 | 1018.7 |
| 20260506215418 | 65 | 90 | 2.0 | 3.0 | 0.00 | 0.07 | 0.07 | 37 | 1018.5 |
| 20260506214914 | 64 | 114 | 1.0 | 1.0 | 0.00 | 0.07 | 0.07 | 36 | 1018.6 |
| 20260506214411 | 66 | 197 | 0.0 | 0.0 | 0.00 | 0.07 | 0.07 | 35 | 1018.8 |
| 20260506213908 | 64 | 211 | 1.0 | 1.0 | 0.00 | 0.07 | 0.07 | 42 | 1018.8 |
| 20260506213406 | 64 | 242 | 1.0 | 2.0 | 0.00 | 0.07 | 0.07 | 37 | 1018.9 |
| 20260506212903 | 66 | 207 | 0.0 | 1.0 | 0.00 | 0.07 | 0.07 | 36 | 1018.9 |
| 20260506212359 | 67 | 184 | 0.0 | 1.0 | 0.00 | 0.07 | 0.07 | 36 | 1018.9 |
| 20260506211853 | 66 | 59 | 2.0 | 3.0 | 0.00 | 0.07 | 0.07 | 34 | 1018.8 |
| 20260506211350 | 65 | 275 | 0.0 | 1.0 | 0.00 | 0.07 | 0.07 | 38 | 1018.9 |
| 20260506210847 | 65 | 195 | 1.0 | 2.0 | 0.00 | 0.07 | 0.07 | 38 | 1019.1 |
| 20260506210344 | 66 | 183 | 0.0 | 1.0 | 0.00 | 0.07 | 0.07 | 37 | 1019.1 |
| 20260506205842 | 65 | 216 | 1.0 | 1.0 | 0.00 | 0.07 | 0.07 | 41 | 1019.1 |
| 20260506205337 | 66 | 2 | 1.0 | 2.0 | 0.00 | 0.07 | 0.07 | 39 | 1019.5 |
| 20260506204834 | 65 | 302 | 1.0 | 1.0 | 0.00 | 0.07 | 0.07 | 39 | 1019.3 |
| 20260506204332 | 66 | 203 | 0.0 | 1.0 | 0.00 | 0.07 | 0.07 | 40 | 1019.5 |
| 20260506203829 | 65 | 199 | 0.0 | 1.0 | 0.00 | 0.07 | 0.07 | 37 | 1019.5 |
| 20260506203326 | 65 | 205 | 1.0 | 2.0 | 0.00 | 0.07 | 0.07 | 36 | 1019.7 |
| 20260506202823 | 65 | 172 | 1.0 | 3.0 | 0.00 | 0.07 | 0.07 | 36 | 1019.8 |
| 20260506202320 | 64 | 273 | 2.0 | 2.0 | 0.00 | 0.07 | 0.07 | 39 | 1020.0 |
| 20260506201816 | 65 | 47 | 0.0 | 1.0 | 0.00 | 0.07 | 0.07 | 38 | 1020.0 |
| 20260506201314 | 65 | 206 | 0.0 | 0.0 | 0.00 | 0.07 | 0.07 | 40 | 1020.1 |
| 20260506200811 | 66 | 59 | 1.0 | 2.0 | 0.00 | 0.07 | 0.07 | 34 | 1020.1 |
| 20260506200307 | 65 | 50 | 1.0 | 2.0 | 0.00 | 0.07 | 0.07 | 37 | 1020.0 |
| 20260506195803 | 64 | 338 | 1.0 | 2.0 | 0.00 | 0.07 | 0.07 | 39 | 1020.0 |
| 20260506195300 | 64 | 199 | 1.0 | 2.0 | 0.00 | 0.07 | 0.07 | 37 | 1020.2 |
| 20260506194757 | 65 | 215 | 2.0 | 2.0 | 0.00 | 0.07 | 0.07 | 38 | 1020.1 |
| 20260506194253 | 64 | 193 | 0.0 | 1.0 | 0.00 | 0.07 | 0.07 | 38 | 1020.3 |
| 20260506193752 | 63 | 272 | 1.0 | 1.0 | 0.00 | 0.07 | 0.07 | 37 | 1020.4 |
| 20260506193248 | 63 | 230 | 2.0 | 2.0 | 0.00 | 0.07 | 0.07 | 35 | 1020.1 |
| 20260506192744 | 64 | 202 | 0.0 | 1.0 | 0.00 | 0.07 | 0.07 | 35 | 1020.2 |
| 20260506192241 | 65 | 41 | 3.0 | 3.0 | 0.00 | 0.07 | 0.07 | 34 | 1019.9 |
| 20260506191738 | 64 | 221 | 1.0 | 2.0 | 0.00 | 0.07 | 0.07 | 35 | 1020.2 |
| 20260506191234 | 64 | 204 | 0.0 | 0.0 | 0.00 | 0.07 | 0.07 | 42 | 1020.2 |
| 20260506190732 | 63 | 206 | 1.0 | 1.0 | 0.00 | 0.07 | 0.07 | 39 | 1020.2 |
| 20260506190228 | 63 | 84 | 0.0 | 1.0 | 0.00 | 0.07 | 0.07 | 34 | 1020.2 |
| 20260506185725 | 62 | 207 | 1.0 | 1.0 | 0.00 | 0.07 | 0.07 | 43 | 1020.2 |
| 20260506185221 | 62 | 75 | 1.0 | 1.0 | 0.00 | 0.07 | 0.07 | 42 | 1020.0 |
| 20260506184719 | 63 | 203 | 0.0 | 0.0 | 0.00 | 0.07 | 0.07 | 40 | 1020.2 |
| 20260506184216 | 62 | 227 | 1.0 | 2.0 | 0.00 | 0.07 | 0.07 | 44 | 1020.3 |
| 20260506183713 | 63 | 223 | 1.0 | 1.0 | 0.00 | 0.07 | 0.07 | 43 | 1020.4 |
| 20260506183208 | 62 | 193 | 0.0 | 0.0 | 0.00 | 0.07 | 0.07 | 41 | 1020.5 |
| 20260506182706 | 62 | 202 | 1.0 | 2.0 | 0.00 | 0.07 | 0.07 | 39 | 1020.6 |
| 20260506182203 | 63 | 192 | 1.0 | 1.0 | 0.00 | 0.07 | 0.07 | 37 | 1020.5 |
| 20260506181701 | 64 | 210 | 1.0 | 2.0 | 0.00 | 0.07 | 0.07 | 39 | 1020.8 |
| 20260506181158 | 64 | 41 | 2.0 | 4.0 | 0.00 | 0.07 | 0.07 | 36 | 1020.7 |
| 20260506180655 | 64 | 184 | 0.0 | 1.0 | 0.00 | 0.07 | 0.07 | 41 | 1020.9 |